Regional Weather Roundup
Issued by NWS

Home | Current Version | Previous Version | Text Only | Print | Product List | Glossary On
Versions: 1 2 3 4 5 6 7 8 9 10 11 12 13 14 15 16 17 18 19 20 21 22 23 24 25 26 27 28 29 30 31 32 33 34 35 36 37 38 39 40 41 42 43 44 45 46 47 48 49 50
000
ASUS43 KBIS 061710
RWRND

NORTH DAKOTA REGIONAL WEATHER ROUNDUP
NATIONAL WEATHER SERVICE BISMARCK ND
1100 AM CST TUE DEC 06 2016

NOTE: "FAIR" INDICATES FEW OR NO CLOUDS BELOW 12,000 FEET WITH NO
SIGNIFICANT WEATHER AND/OR OBSTRUCTIONS TO VISIBILITY.


NDZ001>003-009>011-017-061800-
NORTHWEST NORTH DAKOTA

CITY           SKY/WX    TMP DP  RH WIND       PRES   REMARKS
WILLISTON      CLOUDY     5  -2  72 NW22      30.04R WCI -16
MINOT          SNOW      10   6  84 W36       29.82R VSB 1/4 WCI -14
MINOT AFB      SNOW       9   5  85 NW41      29.80R VSB<1/4 WCI -17
$$

NDZ018>021-031>035-040>046-061800-
SOUTHWEST NORTH DAKOTA

CITY           SKY/WX    TMP DP  RH WIND       PRES   REMARKS
BISMARCK       LGT SNOW   9   6  88 NW24G38   29.87R VSB 1   WCI -12
DICKINSON      MIX PCPN   1  -5  75 NW30G40   29.93R VSB 1   WCI -24
GARRISON         N/A      7   4  87 MISG      29.84R
HETTINGER ARPT CLOUDY     4  -2  76 NW29G40   29.96R HAZE    WCI -20
$$

NDZ004>008-012>016-024-026-027-054-061800-
NORTHEAST NORTH DAKOTA

CITY           SKY/WX    TMP DP  RH WIND       PRES   REMARKS
GRAND FORKS    LGT SNOW  26  22  84 N23       29.34R VSB 3/4 WCI  11
GRND FRKS AFB  LGT SNOW  27  24  91 NW25G40   29.36R VSB 3/4 WCI  11
DEVILS LAKE    SNOW      18  15  88 NW32G39   29.53R VSB 1/2 WCI  -2
$$

NDZ022-023-025-028>030-036>039-047>053-061800-
SOUTHEAST NORTH DAKOTA

CITY           SKY/WX    TMP DP  RH WIND       PRES   REMARKS
FARGO          SNOW      22  18  85 W36G43    29.44R VSB 1/2 WCI   3
JAMESTOWN      SNOW      14  11  87 NW45G56   29.60R VSB 1/4 WCI -10
$$




USA.gov is the U.S. government's official web portal to all federal, state and local government web resources and services.